Flag for Canada Weather past 2 weeks in Yarmouth County, Nova Scotia, Canada

Now
36 °F

Passing clouds.


Feels Like: 31 °F
Forecast: 37 / 49 °F
Wind: 6 mph from West

Location: Yarmouth


UV Index: 5 (Moderate)

Visibility: 15 mi


Pressure: 30.33 "Hg

Humidity: 93%

Dew point: 34 °F

Location of Yarmouth CountyLocation

Historic Weather in Yarmouth County

°F

Yarmouth County temperature yesterday

Maximum temperature yesterday: 54 °F (at 3:00 PM)
Minimum temperature yesterday: 36 °F (at 10:00 PM)
Average temperature yesterday: 42 °F

Past Weeks' High & Low Weather Summary

 TemperatureHumidityPressure
High61 °F (Apr 15, 4:00 PM)100% (Apr 8, 12:00 PM)30.77 "Hg (Apr 8, 12:00 PM)
Low27 °F (Apr 17, 2:00 AM)26% (Apr 17, 1:00 PM)29.38 "Hg (Apr 9, 12:00 AM)
Average42 °F80%30.12 "Hg
* Reported Apr 6 2:00 AM — Apr 21 2:00 AM, Yarmouth County, Weather by CustomWeather, © 2014

Note: Actual official high and low records may vary slightly from our data, if they occured in-between our weather recording intervals... More about our weather records

Advertising

Historic Weather Conditions — Data for Previous 24 hours

 ConditionsComfort  
Time TempWeatherWind HumidityBarometerVisibility
2:00 AM
Apr 21
34 °FClear.6 mph93%30.35 "Hg15 mi
1:00 AM34 °FClear.8 mph100%30.38 "Hg15 mi
12:00 AM34 °FClear.7 mph93%30.40 "Hg15 mi
11:00 PM
Apr 20
36 °FClear.6 mph93%30.40 "Hg15 mi
10:00 PM36 °FPassing clouds.7 mph93%30.41 "Hg15 mi
9:00 PM37 °FScattered clouds.10 mph87%30.40 "Hg15 mi
8:00 PM37 °FPartly sunny.10 mph81%30.40 "Hg15 mi
7:00 PM41 °FScattered clouds.13 mph66%30.41 "Hg15 mi
6:00 PM46 °FScattered clouds.13 mph53%30.41 "Hg15 mi
5:00 PM48 °FScattered clouds.13 mph50%30.39 "Hg15 mi
4:00 PM50 °FPassing clouds.15 mph43%30.38 "Hg15 mi
3:00 PM54 °FPassing clouds.8 mph38%30.40 "Hg15 mi
2:00 PM48 °FPassing clouds.15 mph46%30.42 "Hg15 mi
1:00 PM46 °FPassing clouds.15 mph53%30.46 "Hg15 mi
12:00 PM45 °FPassing clouds.17 mph66%30.47 "Hg15 mi
11:00 AM45 °FPassing clouds.14 mph66%30.47 "Hg15 mi
10:00 AM43 °FScattered clouds.14 mph66%30.46 "Hg15 mi
9:00 AM39 °FPartly sunny.12 mph81%30.46 "Hg15 mi
8:00 AM39 °FPartly sunny.13 mph81%30.44 "Hg15 mi
7:00 AM37 °FPassing clouds.8 mph81%30.40 "Hg15 mi
6:00 AM37 °FPartly cloudy.9 mph81%30.37 "Hg15 mi
5:00 AM39 °FOvercast.15 mph75%30.35 "Hg15 mi
4:00 AM39 °FOvercast.15 mph75%30.32 "Hg15 mi
3:00 AM39 °FPartly cloudy.21 mph75%30.29 "Hg15 mi
Weather by CustomWeather, © 2014

See weather overview